#timestamp,LO_Frequency,Hit,StdDev 
1554433215.8,286047001.2,N
1554433235.6,286046998.4,N
1554433255.4,286046999.3,N
1554433275.3,286046999.0,N
1554433295.1,286046998.3,N
1554433315.9,286047000.5,N
1554433335.7,286046998.6,N
1554433355.5,286046999.2,N
1554433375.4,286047001.1,N
1554433395.2,286047002.5,N
1554433415.0,286047000.6,N
1554433415.9,286047000.6,N
1554433435.8,286047001.1,N
1554433455.6,286046998.4,N
1554433475.4,286046999.5,N
1554433495.3,286046999.3,N
1554433515.1,286046997.0,N
1554433535.9,286046996.5,N
1554433555.7,286046998.3,N
1554433575.5,286047001.0,N
1554433595.4,286047002.2,N
1554433615.2,286047000.4,N
1554433635.1,286047002.8,N
1554433636.0,286047002.8,N
1554433655.8,286047002.5,N
1554433675.7,286046998.2,N
1554433695.5,286047002.2,N
1554433715.3,286047000.6,N
1554433735.2,286046998.9,N
1554433755.9,286046998.8,N
1554433775.7,286046999.0,N
1554433795.6,286047000.3,N
1554433815.4,286047001.9,N
1554433835.3,286047002.0,N
1554433855.1,286047000.3,N
1554433856.0,286047000.3,N
1554433875.8,286047000.1,N
1554433895.7,286046999.1,N
1554433915.5,286047000.6,N
1554433935.3,286047000.8,N
1554433955.2,286046998.7,N
1554433975.0,286046999.5,N
1554433975.9,286046999.5,N
1554433995.8,286046999.6,N
1554434015.6,286046997.1,N
1554434035.4,286047001.2,N
1554434055.3,286046999.2,N
1554434075.1,286046997.0,N
1554434095.8,286046998.9,N
1554434115.7,286047000.7,N
1554434135.5,286047002.7,N
1554434155.4,286047000.5,N
1554434175.2,286047002.4,N
1554434195.0,286047001.5,N
1554434195.9,286047001.5,N
1554434215.8,286047001.9,N
1554434235.6,286047002.3,N
1554434255.4,286047004.4,Y
1554434275.3,286047003.7,P
1554434295.1,286047004.2,N
1554434315.9,286047004.0,N
1554434335.7,286047002.4,N
1554434355.5,286047002.8,N
1554434375.4,286047003.8,N
1554434395.2,286047001.8,N
1554434415.0,286047000.2,N
1554434415.9,286047000.2,N
1554434435.8,286046998.1,N
1554434455.6,286046997.1,N
1554434475.5,286046996.6,N
1554434495.3,286047001.2,N
1554434515.1,286047001.1,N
1554434535.9,286046999.8,N
1554434555.7,286047002.6,N
1554434575.5,286047004.1,N
1554434595.4,286047001.6,N
1554434615.2,286047002.3,N
1554434635.1,286047002.5,N
1554434636.0,286047002.5,N
1554434655.8,286047003.9,N
1554434675.6,286047003.4,N
1554434695.5,286047005.8,N
1554434715.3,286047005.4,N
1554434735.1,286047003.3,N
1554434755.9,286047002.2,N
1554434775.7,286047002.2,N
1554434795.6,286047002.5,N
1554434815.4,286047002.3,N
1554434835.2,286047004.0,N
1554434855.1,286047002.4,N
1554434856.0,286047002.4,N
1554434875.8,286047002.6,N
1554434895.6,286047002.5,N
1554434915.5,286046999.8,N
1554434935.3,286047001.4,N
1554434955.2,286047001.3,N
1554434975.9,286047002.0,N
1554434995.7,286047001.3,N
1554435015.6,286047003.6,N
1554435035.4,286047004.1,N
1554435055.2,286047002.7,N
1554435075.1,286046998.1,N
1554435076.0,286046998.1,N
1554435095.8,286047000.9,N
1554435115.7,286047001.9,N
1554435135.5,286047002.2,N
1554435155.3,286047003.5,N
1554435175.2,286047004.3,N
1554435195.0,286046999.7,N
1554435195.9,286046999.7,N
1554435215.7,286047002.8,N
1554435235.6,286047003.6,N
1554435255.4,286047003.7,N
1554435275.3,286047002.3,N
1554435295.1,286047002.6,N
1554435296.0,286047002.6,N
1554435315.8,286047004.4,N
1554435335.7,286047003.9,N
1554435355.5,286047006.0,Y
1554435375.3,286047004.3,P
1554435395.2,286047005.6,P
1554435415.0,286047004.4,P
1554435415.9,286047004.4,Y
1554435435.8,286046999.4,P
1554435455.6,286046998.7,N
1554435475.4,286047001.2,N
1554435495.3,286046997.8,N
1554435515.1,286046996.2,N
1554435535.9,286046997.0,N
1554435555.7,286046997.4,N
1554435575.5,286046996.5,N
1554435595.4,286046997.2,N
1554435615.2,286046997.2,N
1554435635.0,286046997.8,N
1554435636.0,286046997.8,N
1554435655.8,286046997.4,N
1554435675.6,286046996.9,N
1554435695.5,286046996.9,N
1554435715.3,286046997.5,N
1554435735.1,286046993.3,Y
1554435755.9,286046995.5,P
1554435775.7,286046995.2,P
1554435795.6,286046998.0,N
1554435815.3,286046995.2,Y
1554435835.2,286047000.9,P
1554435855.0,286047001.1,N
1554435855.9,286047001.1,N
1554435875.8,286047002.2,N
1554435895.6,286047001.5,N
1554435915.4,286047001.6,N
1554435935.3,286047000.4,N
1554435955.1,286046998.2,N
1554435975.9,286046999.1,N
1554435995.7,286046998.5,N
1554436015.5,286047000.3,N
1554436035.4,286047000.6,N
1554436055.2,286046999.0,N
1554436075.0,286046998.2,N
1554436075.9,286046998.2,N
1554436095.8,286047000.8,N
1554436115.6,286047000.3,N
1554436135.4,286047000.3,N
1554436155.3,286047000.0,N
1554436175.1,286047001.4,N
1554436195.9,286047000.8,N
1554436215.7,286046998.5,N
1554436235.5,286046998.8,N
1554436255.4,286047000.0,N
1554436275.2,286047001.0,N
1554436295.1,286047004.0,N
1554436296.0,286047004.0,N
1554436315.8,286047004.4,N
1554436335.6,286047003.6,N
1554436355.5,286047004.4,N
1554436375.3,286047002.7,N
1554436395.2,286047000.4,N
1554436415.9,286046999.8,N
1554436435.7,286047002.2,N
1554436455.6,286047004.4,N
1554436475.4,286047004.3,N
1554436495.2,286047006.0,N
1554436515.1,286047003.9,N
1554436516.0,286047003.9,N
1554436535.8,286047004.3,N
1554436555.7,286047006.0,N
1554436575.5,286047002.9,N
1554436595.3,286047006.0,N
1554436615.2,286047003.4,N
1554436635.0,286047003.3,N
1554436635.9,286047003.3,N
1554436655.8,286047002.9,N
1554436675.6,286047005.7,N
1554436695.4,286047005.8,N
1554436715.3,286047003.4,N
1554436735.1,286047003.7,N
1554436755.8,286047002.8,N
1554436775.7,286047000.4,N
1554436795.5,286047000.1,N
